Погода в Васюринской

Россия / Краснодарский край     45°07′05″N   39°25′17″E
темп.,
°C
ветер,
м/с
пор.,
м/с
влажн.,
%
обл.,
%
осадки,
мм/ч
давл.,
гПа
погр.,
м
2 марта, вт
вт200:00+3юв119696 0.1 102851
03:00+3ю119597 0.2 102836
06:00+3ю2296100 0.4 1028126
09:00+3юз2398100 2.4 1029179
12:00+4з2492100 0.8 1028352
15:00+5з578399 0.9 1026660
18:00+5зюз5107992 0.1 1025472
21:00+3зюз6118078 0.1 1025442
3 марта, ср
ср300:00+3зюз81478100 0.0 1023747
03:00+4юз101678100 0.0 10211041
06:00+4юз111780100 0.1 10191174
09:00+3зюз101595100 2.8 1020974
12:00+3зсз4797100 3.4 1020457
15:00+6зсз676888 3.6 10211286
18:00+4сз487770 0.1 1023310
21:00+1зсз358136 0.1 1026104
4 марта, чт
чт400:00+1зюз23800 0.0 102735
03:000юз23880 0.0 102758
06:000юз23860 0.0 102756
09:00+3юз34720 0.0 1027305
12:00+6зюз45540 0.0 1025951
15:00+8зюз57520 0.0 10241416
18:00+5юз610660 0.0 1022313
21:00+3зюз59740 0.0 1022247
5 марта, пт
пт500:00+2юз510770 0.0 1022277
03:00+1ююз35880 0.0 1021110
06:00+1ю23860 0.0 102138
09:00+4ю35760 0.0 1021303
12:00+10юз711580 0.0 10201119
15:00+10юз812560 0.0 10191009
18:00+7юз512660 0.0 1018467
21:00+5ююз4107410 0.0 1019265
6 марта, сб
сб600:00+3ю377942 0.0 1018136
03:00+5ююз5155737 0.0 1017355
06:00+6юз51446100 0.0 1017269
09:00+8зюз61648100 0.0 1016617
12:00+12юз101641100 0.0 10151091
15:00+12юз81452100 0.0 10141089
18:00+9юз71471100 0.1 1014633
21:00+8зюз61185100 0.2 1016516